Time,TemperatureF,DewpointF,PressureIn,WindDirection,WindDirectionDegrees,WindSpeedMPH,WindSpeedGustMPH,Humidity,HourlyPrecipIn,Conditions,Clouds,dailyrainin,SoftwareType,DateUTC
2013-06-09 00:07:00,57.8,41.0,29.86,SE,137,0.0,1.0,54,0.00,,,0.00,weatherlink.com 1.10,2013-06-09 07:07:00,
2013-06-09 00:22:00,57.5,42.0,29.86,SSE,155,0.0,2.0,56,0.00,,,0.00,weatherlink.com 1.10,2013-06-09 07:22:00,
2013-06-09 00:37:00,57.1,41.0,29.86,SSE,155,0.0,2.0,56,0.00,,,0.00,weatherlink.com 1.10,2013-06-09 07:37:00,
2013-06-09 00:52:00,56.8,41.0,29.86,SSE,155,0.0,0.0,56,0.00,,,0.00,weatherlink.com 1.10,2013-06-09 07:52:00,
2013-06-09 01:07:00,56.9,42.0,29.86,SSE,155,0.0,1.0,57,0.00,,,0.00,weatherlink.com 1.10,2013-06-09 08:07:00,
2013-06-09 01:23:00,56.8,41.0,29.86,SSE,155,0.0,1.0,56,0.00,,,0.00,weatherlink.com 1.10,2013-06-09 08:23:00,
2013-06-09 01:38:00,56.5,41.0,29.85,SSE,155,0.0,1.0,57,0.00,,,0.00,weatherlink.com 1.10,2013-06-09 08:38:00,
2013-06-09 01:53:00,57.3,41.0,29.85,SSE,155,0.0,0.0,54,0.00,,,0.00,weatherlink.com 1.10,2013-06-09 08:53:00,
2013-06-09 02:08:00,57.4,41.0,29.84,SSE,155,0.0,0.0,54,0.00,,,0.00,weatherlink.com 1.10,2013-06-09 09:08:00,
2013-06-09 02:23:00,57.0,41.0,29.84,SSE,155,0.0,0.0,55,0.00,,,0.00,weatherlink.com 1.10,2013-06-09 09:23:00,
2013-06-09 02:38:00,57.1,41.0,29.84,SSE,155,0.0,0.0,55,0.00,,,0.00,weatherlink.com 1.10,2013-06-09 09:38:00,
2013-06-09 02:53:00,56.2,40.0,29.84,SSE,155,0.0,0.0,56,0.00,,,0.00,weatherlink.com 1.10,2013-06-09 09:53:00,
2013-06-09 03:08:00,55.0,41.0,29.83,SSE,155,0.0,0.0,59,0.00,,,0.00,weatherlink.com 1.10,2013-06-09 10:08:00,
2013-06-09 03:23:00,54.7,40.0,29.83,SSE,155,0.0,0.0,59,0.00,,,0.00,weatherlink.com 1.10,2013-06-09 10:23:00,
2013-06-09 03:38:00,54.5,40.0,29.83,SSE,155,0.0,0.0,59,0.00,,,0.00,weatherlink.com 1.10,2013-06-09 10:38:00,
2013-06-09 03:53:00,54.6,41.0,29.83,SSE,155,0.0,0.0,60,0.00,,,0.00,weatherlink.com 1.10,2013-06-09 10:53:00,
2013-06-09 04:08:00,54.0,41.0,29.82,SSE,155,0.0,0.0,62,0.00,,,0.00,weatherlink.com 1.10,2013-06-09 11:08:00,
2013-06-09 04:23:00,53.8,41.0,29.82,SSE,155,0.0,0.0,63,0.00,,,0.00,weatherlink.com 1.10,2013-06-09 11:23:00,
2013-06-09 04:38:00,53.4,41.0,29.82,SSE,155,0.0,0.0,64,0.00,,,0.00,weatherlink.com 1.10,2013-06-09 11:38:00,
2013-06-09 04:53:00,52.7,41.0,29.82,SSE,155,0.0,0.0,65,0.00,,,0.00,weatherlink.com 1.10,2013-06-09 11:53:00,
2013-06-09 05:08:00,52.3,42.0,29.82,NE,47,0.0,4.0,68,0.00,,,0.00,weatherlink.com 1.10,2013-06-09 12:08:00,
2013-06-09 05:23:00,51.9,42.0,29.82,North,6,0.0,2.0,69,0.00,,,0.00,weatherlink.com 1.10,2013-06-09 12:23:00,
2013-06-09 05:38:00,51.0,42.0,29.83,NE,53,0.0,0.0,71,0.00,,,0.00,weatherlink.com 1.10,2013-06-09 12:38:00,
2013-06-09 05:53:00,51.2,43.0,29.83,North,349,0.0,3.0,73,0.00,,,0.00,weatherlink.com 1.10,2013-06-09 12:53:00,
2013-06-09 06:08:00,51.3,43.0,29.83,North,359,0.0,2.0,73,0.00,,,0.00,weatherlink.com 1.10,2013-06-09 13:08:00,
2013-06-09 06:23:00,50.9,43.0,29.83,NNE,21,0.0,1.0,74,0.00,,,0.00,weatherlink.com 1.10,2013-06-09 13:23:00,
2013-06-09 06:38:00,51.3,43.0,29.83,ENE,72,0.0,0.0,74,0.00,,,0.00,weatherlink.com 1.10,2013-06-09 13:38:00,
2013-06-09 06:53:00,51.8,43.0,29.83,SSE,155,0.0,0.0,73,0.00,,,0.00,weatherlink.com 1.10,2013-06-09 13:53:00,
2013-06-09 07:08:00,53.4,44.0,29.83,SSE,155,0.0,0.0,71,0.00,,,0.00,weatherlink.com 1.10,2013-06-09 14:08:00,
2013-06-09 07:23:00,55.3,45.0,29.83,WSW,246,0.0,0.0,68,0.00,,,0.00,weatherlink.com 1.10,2013-06-09 14:23:00,
2013-06-09 07:38:00,56.6,45.0,29.83,WNW,283,0.0,0.0,66,0.00,,,0.00,weatherlink.com 1.10,2013-06-09 14:38:00,
2013-06-09 07:53:00,57.8,45.0,29.83,WNW,284,0.0,1.0,62,0.00,,,0.00,weatherlink.com 1.10,2013-06-09 14:53:00,
2013-06-09 08:08:00,58.6,45.0,29.82,WNW,283,0.0,3.0,61,0.00,,,0.00,weatherlink.com 1.10,2013-06-09 15:08:00,
2013-06-09 08:23:00,59.6,45.0,29.82,SSW,210,0.0,3.0,58,0.00,,,0.00,weatherlink.com 1.10,2013-06-09 15:23:00,
2013-06-09 08:38:00,60.1,45.0,29.82,West,260,0.0,3.0,58,0.00,,,0.00,weatherlink.com 1.10,2013-06-09 15:38:00,
2013-06-09 08:53:00,60.9,44.0,29.82,West,262,0.0,4.0,55,0.00,,,0.00,weatherlink.com 1.10,2013-06-09 15:53:00,
2013-06-09 09:08:00,62.3,45.0,29.82,NW,318,3.0,4.0,54,0.00,,,0.00,weatherlink.com 1.10,2013-06-09 16:08:00,
2013-06-09 09:23:00,62.7,45.0,29.82,SSW,204,0.0,6.0,52,0.00,,,0.00,weatherlink.com 1.10,2013-06-09 16:23:00,
2013-06-09 09:39:00,63.7,46.0,29.81,West,274,0.0,5.0,52,0.00,,,0.00,weatherlink.com 1.10,2013-06-09 16:39:00,
2013-06-09 09:54:00,64.5,44.0,29.81,West,269,3.0,6.0,48,0.00,,,0.00,weatherlink.com 1.10,2013-06-09 16:54:00,
2013-06-09 10:09:00,65.1,43.0,29.81,NNE,25,1.0,5.0,45,0.00,,,0.00,weatherlink.com 1.10,2013-06-09 17:09:00,
2013-06-09 10:24:00,66.0,44.0,29.80,WNW,295,3.0,6.0,45,0.00,,,0.00,weatherlink.com 1.10,2013-06-09 17:24:00,
2013-06-09 10:39:00,66.7,42.0,29.80,East,81,0.0,5.0,41,0.00,,,0.00,weatherlink.com 1.10,2013-06-09 17:39:00,
2013-06-09 10:54:00,67.9,41.0,29.80,NW,326,3.0,6.0,38,0.00,,,0.00,weatherlink.com 1.10,2013-06-09 17:54:00,
2013-06-09 11:09:00,68.4,42.0,29.80,West,269,0.0,6.0,39,0.00,,,0.00,weatherlink.com 1.10,2013-06-09 18:09:00,
2013-06-09 11:24:00,69.4,39.0,29.80,WNW,288,4.0,4.0,33,0.00,,,0.00,weatherlink.com 1.10,2013-06-09 18:24:00,
2013-06-09 11:39:00,69.8,34.0,29.80,West,273,0.0,9.0,27,0.00,,,0.00,weatherlink.com 1.10,2013-06-09 18:39:00,
2013-06-09 11:54:00,70.6,37.0,29.80,WNW,297,3.0,7.0,29,0.00,,,0.00,weatherlink.com 1.10,2013-06-09 18:54:00,
2013-06-09 12:09:00,70.7,38.0,29.80,WSW,255,4.0,10.0,30,0.00,,,0.00,weatherlink.com 1.10,2013-06-09 19:09:00,
2013-06-09 12:24:00,71.4,34.0,29.80,North,356,6.0,12.0,25,0.00,,,0.00,weatherlink.com 1.10,2013-06-09 19:24:00,
2013-06-09 12:39:00,72.3,32.0,29.79,NW,318,2.0,9.0,23,0.00,,,0.00,weatherlink.com 1.10,2013-06-09 19:39:00,
2013-06-09 12:54:00,71.6,31.0,29.79,NW,305,2.0,10.0,22,0.00,,,0.00,weatherlink.com 1.10,2013-06-09 19:54:00,
2013-06-09 13:09:00,72.2,33.0,29.79,West,273,6.0,14.0,24,0.00,,,0.00,weatherlink.com 1.10,2013-06-09 20:09:00,
2013-06-09 13:24:00,72.8,33.0,29.78,NW,318,2.0,8.0,23,0.00,,,0.00,weatherlink.com 1.10,2013-06-09 20:24:00,
2013-06-09 13:39:00,73.4,33.0,29.78,North,6,5.0,9.0,23,0.00,,,0.00,weatherlink.com 1.10,2013-06-09 20:39:00,
2013-06-09 13:54:00,73.3,32.0,29.77,SSW,212,3.0,8.0,22,0.00,,,0.00,weatherlink.com 1.10,2013-06-09 20:54:00,
2013-06-09 14:09:00,74.3,34.0,29.77,NNE,16,4.0,7.0,23,0.00,,,0.00,weatherlink.com 1.10,2013-06-09 21:09:00,
2013-06-09 14:24:00,74.9,35.0,29.76,NW,323,7.0,11.0,23,0.00,,,0.00,weatherlink.com 1.10,2013-06-09 21:24:00,
2013-06-09 14:39:00,74.6,33.0,29.76,WNW,303,3.0,8.0,22,0.00,,,0.00,weatherlink.com 1.10,2013-06-09 21:39:00,
2013-06-09 14:54:00,75.4,34.0,29.76,North,349,5.0,11.0,22,0.00,,,0.00,weatherlink.com 1.10,2013-06-09 21:54:00,
2013-06-09 15:09:00,75.6,33.0,29.75,WNW,302,2.0,15.0,21,0.00,,,0.00,weatherlink.com 1.10,2013-06-09 22:09:00,
2013-06-09 15:24:00,76.0,34.0,29.75,NNW,330,2.0,8.0,22,0.00,,,0.00,weatherlink.com 1.10,2013-06-09 22:24:00,
2013-06-09 15:39:00,76.9,35.0,29.75,NW,326,5.0,9.0,22,0.00,,,0.00,weatherlink.com 1.10,2013-06-09 22:39:00,
2013-06-09 15:54:00,76.4,34.0,29.74,NW,325,3.0,9.0,21,0.00,,,0.00,weatherlink.com 1.10,2013-06-09 22:54:00,
2013-06-09 16:10:00,76.8,33.0,29.74,North,360,9.0,12.0,20,0.00,,,0.00,weatherlink.com 1.10,2013-06-09 23:10:00,
2013-06-09 16:25:00,76.3,31.0,29.73,NNW,330,7.0,11.0,19,0.00,,,0.00,weatherlink.com 1.10,2013-06-09 23:25:00,
2013-06-09 16:40:00,76.5,33.0,29.73,NW,304,0.0,9.0,20,0.00,,,0.00,weatherlink.com 1.10,2013-06-09 23:40:00,
2013-06-09 16:55:00,76.8,30.0,29.73,NNW,347,3.0,11.0,18,0.00,,,0.00,weatherlink.com 1.10,2013-06-09 23:55:00,
2013-06-09 17:10:00,76.3,28.0,29.73,NNW,345,5.0,13.0,17,0.00,,,0.00,weatherlink.com 1.10,2013-06-10 00:10:00,
2013-06-09 17:25:00,75.1,29.0,29.73,NNW,338,5.0,16.0,18,0.00,,,0.00,weatherlink.com 1.10,2013-06-10 00:25:00,
2013-06-09 17:40:00,74.6,28.0,29.73,NNW,332,3.0,11.0,18,0.00,,,0.00,weatherlink.com 1.10,2013-06-10 00:40:00,
2013-06-09 17:55:00,74.2,29.0,29.72,NNW,339,3.0,-999.0,19,-99.99,,,0.00,weatherlink.com 1.10,2013-06-10 00:55:00,
2013-06-09 18:10:00,73.5,29.0,29.72,West,281,6.0,13.0,19,0.00,,,0.00,weatherlink.com 1.10,2013-06-10 01:10:00,
2013-06-09 18:25:00,72.8,29.0,29.72,NNE,14,8.0,15.0,20,0.00,,,0.00,weatherlink.com 1.10,2013-06-10 01:25:00,
2013-06-09 18:40:00,71.5,27.0,29.72,NE,37,13.0,17.0,19,0.00,,,0.00,weatherlink.com 1.10,2013-06-10 01:40:00,
2013-06-09 18:56:00,70.6,25.0,29.72,West,280,8.0,16.0,18,0.00,,,0.00,weatherlink.com 1.10,2013-06-10 01:56:00,
2013-06-09 19:10:00,69.3,24.0,29.72,NNE,18,8.0,14.0,18,0.00,,,0.00,weatherlink.com 1.10,2013-06-10 02:10:00,
2013-06-09 19:25:00,69.0,26.0,29.73,North,353,8.0,16.0,20,0.00,,,0.00,weatherlink.com 1.10,2013-06-10 02:25:00,
2013-06-09 19:40:00,67.9,26.0,29.73,NNW,345,9.0,12.0,21,0.00,,,0.00,weatherlink.com 1.10,2013-06-10 02:40:00,
2013-06-09 19:55:00,66.6,26.0,29.73,NNW,329,5.0,13.0,22,0.00,,,0.00,weatherlink.com 1.10,2013-06-10 02:55:00,
2013-06-09 20:10:00,65.4,27.0,29.73,NNW,345,7.0,11.0,23,0.00,,,0.00,weatherlink.com 1.10,2013-06-10 03:10:00,
2013-06-09 20:25:00,64.0,25.0,29.73,NNW,342,4.0,9.0,23,0.00,,,0.00,weatherlink.com 1.10,2013-06-10 03:25:00,
2013-06-09 20:40:00,62.2,26.0,29.74,NNW,338,3.0,7.0,25,0.00,,,0.00,weatherlink.com 1.10,2013-06-10 03:40:00,
2013-06-09 20:55:00,59.8,26.0,29.74,NNW,332,3.0,10.0,27,0.00,,,0.00,weatherlink.com 1.10,2013-06-10 03:55:00,
2013-06-09 21:10:00,58.2,25.0,29.75,North,356,3.0,5.0,28,0.00,,,0.00,weatherlink.com 1.10,2013-06-10 04:10:00,
2013-06-09 21:25:00,57.4,24.0,29.76,NNE,15,3.0,7.0,28,0.00,,,0.00,weatherlink.com 1.10,2013-06-10 04:25:00,
2013-06-09 21:40:00,56.1,24.0,29.76,NNW,347,3.0,5.0,29,0.00,,,0.00,weatherlink.com 1.10,2013-06-10 04:40:00,
2013-06-09 21:55:00,55.3,24.0,29.76,NNE,16,4.0,5.0,30,0.00,,,0.00,weatherlink.com 1.10,2013-06-10 04:55:00,
2013-06-09 22:10:00,54.4,24.0,29.77,NNE,25,1.0,5.0,31,0.00,,,0.00,weatherlink.com 1.10,2013-06-10 05:10:00,
2013-06-09 22:25:00,53.2,23.0,29.78,ENE,78,2.0,2.0,31,0.00,,,0.00,weatherlink.com 1.10,2013-06-10 05:25:00,
2013-06-09 22:40:00,53.3,23.0,29.78,NW,323,0.0,3.0,31,0.00,,,0.00,weatherlink.com 1.10,2013-06-10 05:40:00,
2013-06-09 22:55:00,52.8,24.0,29.78,East,82,0.0,2.0,32,0.00,,,0.00,weatherlink.com 1.10,2013-06-10 05:55:00,
2013-06-09 23:10:00,52.0,24.0,29.78,ESE,109,0.0,1.0,33,0.00,,,0.00,weatherlink.com 1.10,2013-06-10 06:10:00,
2013-06-09 23:25:00,50.9,24.0,29.79,ESE,109,0.0,0.0,35,0.00,,,0.00,weatherlink.com 1.10,2013-06-10 06:25:00,
2013-06-09 23:40:00,50.0,24.0,29.79,North,354,1.0,3.0,37,0.00,,,0.00,weatherlink.com 1.10,2013-06-10 06:40:00,
2013-06-09 23:55:00,48.8,26.0,29.78,North,359,2.0,6.0,41,0.00,,,0.00,weatherlink.com 1.10,2013-06-10 06:55:00,